カタログに戻る

STARLINK-31362

運用中通信VLEO
NORAD 58935·PAYLOAD·🇺🇸 United States

打ち上げ Feb 10, 2024 から Vandenberg Space Force Base

Loading…

次のパス (今後24時間)

TLE

最新Source: CelesTrak SupGP

元期: Sep 15, 2026, 02:26 UTC

1 58935C 24027E   26258.10187500  .00006258  00000+0  18492-3 0  2585
2 58935  53.1583 148.5905 0001282  87.4793 342.8690 15.34384784    10

AllMySatでSTARLINK-31362をリアルタイム追跡

Download on the App Store